QPF
0.02 0.03 0.03 0.04 0.05 0.03 0.01 0.02 0.02 0.00 0.04 0.12 0.20 0.08 0.00 0.00 0.00 0.00 0.00 0.00 0.00 0.00 0.00 0.00 0.00 0.00 0.00 0.00 0.00 0.00 0.00 0.00 0.00 0.00 0.00 0.00 0.00 0.00 0.00 0.00 0.00 0.00 0.00 0.00
0.01 0.02 0.02 0.02 0.02 0.05 0.12 0.16 0.02 0.00 0.04 0.12 0.06 0.04 0.00 0.00 0.00 0.00 0.00 0.00 0.00 0.00 0.00 0.00 0.00 0.00 0.00 0.00 0.00 0.00 0.00 0.00 0.00 0.00 0.00 0.00 0.00 0.00 0.00 0.00 0.00 0.00 0.00 0.00
0.01 0.01 0.00 0.00 0.01 0.02 0.09 0.11 0.05 0.00 0.05 0.12 0.11 0.06 0.03 0.03 0.00 0.00 0.00 0.00 0.00 0.00 0.00 0.00 0.00 0.00 0.00 0.00 0.00 0.00 0.00 0.00 0.00 0.00 0.00 0.00 0.00 0.00 0.00 0.00 0.00 0.00 0.00 0.00
0.00 0.01 0.01 0.00 0.00 0.01 0.02 0.06 0.04 0.04 0.04 0.07 0.14 0.12 0.10 0.04 0.01 0.00 0.00 0.00 0.00 0.00 0.00 0.00 0.00 0.00 0.00 0.00 0.00 0.00 0.00 0.00 0.00 0.00 0.00 0.00 0.00 0.00 0.00 0.00 0.00 0.00 0.00 0.00
0.00 0.00 0.00 0.00 0.00 0.01 0.01 0.05 0.14 0.14 0.03 0.06 0.11 0.08 0.06 0.05 0.01 0.00 0.00 0.00 0.00 0.00 0.00 0.00 0.00 0.00 0.00 0.00 0.00 0.00 0.00 0.00 0.00 0.00 0.00 0.00 0.00 0.00 0.00 0.00 0.00 0.00 0.00 0.00
0.00 0.01 0.00 0.00 0.00 0.04 0.04 0.02 0.05 0.13 0.04 0.07 0.12 0.10 0.06 0.02 0.00 0.00 0.00 0.00 0.00 0.00 0.00 0.00 0.00 0.00 0.00 0.00 0.00 0.00 0.00 0.00 0.00 0.00 0.00 0.00 0.00 0.00 0.00 0.00 0.00 0.00 0.00 0.00
0.02 0.02 0.01 0.00 0.00 0.05 0.04 0.02 0.05 0.11 0.04 0.09 0.12 0.09 0.07 0.04 0.00 0.00 0.00 0.00 0.00 0.00 0.00 0.00 0.00 0.00 0.00 0.00 0.00 0.00 0.01 0.00 0.00 0.00 0.00 0.00 0.00 0.00 0.00 0.00 0.00 0.00 0.00 0.00
0.04 0.04 0.02 0.01 0.01 0.01 0.02 0.01 0.03 0.13 0.09 0.08 0.08 0.07 0.08 0.04 0.06 0.04 0.00 0.00 0.00 0.00 0.00 0.00 0.00 0.00 0.00 0.00 0.00 0.00 0.00 0.00 0.00 0.00 0.00 0.00 0.00 0.00 0.00 0.00 0.00 0.00 0.00 0.00
0.04 0.05 0.03 0.02 0.02 0.02 0.02 0.00 0.01 0.10 0.14 0.09 0.12 0.08 0.12 0.16 0.20 0.11 0.03 0.01 0.01 0.00 0.00 0.00 0.00 0.00 0.00 0.00 0.00 0.00 0.00 0.00 0.00 0.00 0.00 0.00 0.00 0.00 0.00 0.00 0.00 0.00 0.00 0.00
0.02 0.03 0.03 0.02 0.02 0.03 0.01 0.00 0.00 0.04 0.11 0.07 0.08 0.09 0.10 0.15 0.21 0.14 0.09 0.04 0.02 0.00 0.00 0.00 0.00 0.00 0.00 0.00 0.00 0.00 0.00 0.00 0.00 0.02 0.01 0.00 0.00 0.00 0.00 0.00 0.00 0.00 0.00 0.00
0.00 0.01 0.01 0.01 0.02 0.02 0.00 0.00 0.00 0.06 0.09 0.06 0.08 0.09 0.10 0.10 0.15 0.14 0.14 0.12 0.11 0.06 0.04 0.03 0.01 0.01 0.00 0.00 0.00 0.00 0.00 0.00 0.00 0.02 0.07 0.01 0.00 0.00 0.00 0.00 0.00 0.00 0.00 0.00
0.00 0.00 0.00 0.00 0.02 0.03 0.01 0.00 0.00 0.03 0.09 0.06 0.07 0.09 0.11 0.10 0.10 0.13 0.11 0.13 0.08 0.08 0.09 0.08 0.03 0.01 0.00 0.00 0.00 0.00 0.00 0.00 0.01 0.01 0.01 0.00 0.00 0.00 0.00 0.00 0.00 0.00 0.00 0.00
0.00 0.00 0.00 0.00 0.02 0.03 0.01 0.00 0.00 0.02 0.06 0.04 0.02 0.05 0.06 0.05 0.02 0.04 0.14 0.13 0.10 0.08 0.05 0.03 0.03 0.02 0.00 0.00 0.00 0.00 0.00 0.00 0.03 0.05 0.03 0.00 0.00 0.00 0.00 0.00 0.00 0.00 0.00 0.00
0.00 0.00 0.00 0.00 0.01 0.01 0.01 0.01 0.01 0.04 0.06 0.04 0.03 0.04 0.03 0.03 0.01 0.02 0.03 0.06 0.07 0.08 0.08 0.10 0.09 0.06 0.02 0.00 0.00 0.00 0.00 0.00 0.01 0.04 0.06 0.03 0.02 0.00 0.00 0.00 0.00 0.00 0.00 0.00
0.00 0.00 0.00 0.00 0.00 0.00 0.00 0.01 0.01 0.05 0.09 0.05 0.04 0.02 0.03 0.02 0.00 0.01 0.01 0.01 0.02 0.04 0.05 0.07 0.08 0.07 0.06 0.04 0.04 0.04 0.04 0.03 0.02 0.02 0.01 0.01 0.02 0.00 0.00 0.00 0.00 0.00 0.00 0.00
0.00 0.00 0.00 0.00 0.00 0.00 0.00 0.00 0.00 0.00 0.05 0.06 0.03 0.03 0.04 0.02 0.00 0.00 0.00 0.00 0.00 0.01 0.02 0.05 0.06 0.07 0.05 0.05 0.04 0.05 0.06 0.07 0.06 0.08 0.07 0.03 0.01 0.00 0.00 0.00 0.00 0.00 0.00 0.00
0.00 0.00 0.00 0.00 0.00 0.00 0.00 0.00 0.00 0.00 0.02 0.04 0.03 0.03 0.04 0.04 0.02 0.00 0.00 0.00 0.00 0.00 0.01 0.04 0.06 0.04 0.02 0.04 0.04 0.08 0.09 0.08 0.10 0.08 0.05 0.04 0.01 0.00 0.00 0.00 0.00 0.00 0.00 0.00
0.00 0.00 0.00 0.00 0.00 0.00 0.00 0.00 0.00 0.00 0.01 0.01 0.02 0.01 0.01 0.04 0.04 0.02 0.00 0.00 0.00 0.00 0.00 0.01 0.00 0.00 0.01 0.04 0.08 0.10 0.09 0.07 0.05 0.03 0.01 0.00 0.00 0.00 0.00 0.00 0.00 0.00 0.00 0.00
0.00 0.00 0.00 0.00 0.00 0.00 0.00 0.00 0.00 0.00 0.00 0.00 0.00 0.01 0.02 0.01 0.04 0.04 0.01 0.00 0.00 0.00 0.00 0.00 0.00 0.00 0.00 0.03 0.06 0.05 0.03 0.01 0.01 0.00 0.00 0.00 0.00 0.00 0.00 0.00 0.00 0.00 0.00 0.00
0.00 0.00 0.00 0.00 0.00 0.00 0.00 0.00 0.00 0.00 0.00 0.00 0.01 0.01 0.01 0.01 0.02 0.04 0.03 0.01 0.00 0.00 0.00 0.00 0.00 0.00 0.01 0.02 0.02 0.01 0.00 0.00 0.00 0.00 0.00 0.00 0.00 0.00 0.00 0.00 0.00 0.00 0.00 0.00
0.00 0.00 0.00 0.00 0.00 0.00 0.00 0.00 0.00 0.00 0.00 0.00 0.01 0.02 0.01 0.01 0.02 0.03 0.02 0.01 0.00 0.00 0.00 0.00 0.00 0.00 0.01 0.01 0.02 0.02 0.00 0.00 0.00 0.00 0.00 0.00 0.00 0.00 0.00 0.00 0.00 0.00 0.00 0.00
0.00 0.00 0.01 0.00 0.00 0.00 0.00 0.00 0.00 0.00 0.00 0.00 0.00 0.01 0.01 0.01 0.00 0.00 0.00 0.00 0.00 0.00 0.00 0.00 0.00 0.01 0.01 0.01 0.02 0.02 0.01 0.00 0.00 0.00 0.00 0.00 0.00 0.00 0.00 0.00 0.00 0.00 0.00 0.00
0.00 0.00 0.00 0.00 0.00 0.00 0.00 0.00 0.00 0.00 0.00 0.00 0.01 0.00 0.00 0.00 0.00 0.00 0.00 0.00 0.00 0.00 0.00 0.00 0.00 0.01 0.01 0.02 0.02 0.01 0.00 0.00 0.00 0.00 0.00 0.00 0.00 0.00 0.00 0.00 0.00 0.00 0.00 0.00
0.00 0.00 0.00 0.00 0.00 0.00 0.01 0.02 0.02 0.01 0.01 0.01 0.01 0.00 0.00 0.00 0.00 0.00 0.00 0.00 0.00 0.00 0.00 0.00 0.00 0.01 0.01 0.02 0.02 0.00 0.00 0.00 0.00 0.00 0.00 0.00 0.00 0.00 0.00 0.00 0.00 0.00 0.00 0.00
0.00 0.00 0.00 0.00 0.00 0.00 0.00 0.00 0.01 0.01 0.01 0.02 0.01 0.01 0.01 0.00 0.00 0.00 0.00 0.00 0.00 0.00 0.00 0.00 0.00 0.01 0.01 0.01 0.00 0.00 0.00 0.00 0.00 0.00 0.00 0.00 0.00 0.00 0.00 0.00 0.00 0.00 0.00 0.00
0.00 0.00 0.00 0.00 0.00 0.00 0.00 0.00 0.00 0.00 0.00 0.01 0.02 0.02 0.02 0.01 0.00 0.00 0.00 0.00 0.00 0.00 0.00 0.01 0.01 0.01 0.01 0.00 0.00 0.00 0.00 0.00 0.00 0.00 0.00 0.00 0.00 0.00 0.00 0.00 0.00 0.00 0.00 0.00
0.00 0.00 0.00 0.00 0.00 0.00 0.00 0.00 0.00 0.00 0.00 0.00 0.01 0.02 0.02 0.02 0.01 0.01 0.01 0.01 0.01 0.01 0.01 0.01 0.01 0.00 0.00 0.00 0.00 0.00 0.00 0.00 0.00 0.00 0.00 0.00 0.00 0.00 0.00 0.00 0.00 0.00 0.00 0.00
MSLP
1015.56 1014.79 1014.17 1013.56 1012.99 1012.40 1011.89 1011.97 1011.31 1010.52 1009.87 1010.15 1009.59 1008.92 1007.73 1006.57 1005.42 1005.52 1005.48 1004.10 1003.88 1003.99 1004.37 1004.90 1005.72 1006.18 1005.59 1005.99 1006.57 1008.15 1008.84 1010.12 1012.46 1012.58 1012.47 1012.50 1012.45 1012.75 1013.18 1014.18 1016.13 1016.87 1017.10 1016.20
1015.69 1014.96 1014.32 1013.64 1013.07 1012.51 1012.21 1012.01 1011.15 1010.32 1010.32 1009.98 1009.11 1008.11 1007.04 1006.15 1005.11 1004.60 1004.61 1003.72 1003.12 1003.19 1003.73 1004.82 1005.17 1005.36 1005.76 1005.46 1005.78 1006.00 1007.42 1009.11 1011.93 1012.90 1013.12 1012.91 1012.72 1012.66 1012.57 1013.26 1014.09 1015.23 1016.19 1015.87
1015.65 1014.90 1014.26 1013.66 1012.98 1012.42 1012.24 1012.06 1011.60 1010.25 1009.89 1009.58 1008.93 1008.10 1006.78 1005.79 1004.79 1004.08 1003.58 1003.11 1003.10 1003.26 1003.81 1004.08 1004.96 1005.87 1006.23 1005.96 1005.76 1005.88 1006.31 1007.85 1008.87 1009.73 1010.10 1011.07 1012.44 1012.12 1012.23 1012.48 1013.76 1013.55 1014.38 1015.33
1015.72 1014.86 1014.28 1013.66 1012.96 1012.25 1012.15 1012.33 1011.81 1010.97 1009.72 1008.77 1008.59 1007.93 1006.95 1005.53 1004.46 1003.74 1003.02 1003.26 1003.17 1003.23 1004.00 1004.59 1005.05 1006.01 1006.55 1006.58 1006.37 1006.61 1006.86 1008.05 1009.17 1009.80 1009.83 1010.36 1010.68 1011.05 1011.62 1012.00 1011.37 1012.74 1012.52 1014.21
1015.47 1014.83 1014.19 1013.45 1012.83 1012.09 1012.21 1012.26 1012.24 1011.39 1010.26 1009.30 1008.35 1007.48 1006.29 1005.09 1004.24 1003.54 1003.31 1003.02 1003.42 1003.43 1003.47 1003.52 1004.38 1004.87 1005.61 1005.98 1007.20 1007.19 1007.56 1008.96 1009.48 1010.61 1010.62 1010.57 1010.85 1010.92 1010.76 1010.53 1011.15 1011.89 1012.62 1013.69
1015.39 1014.52 1013.87 1013.28 1012.72 1012.25 1012.09 1012.00 1012.02 1011.70 1009.91 1009.22 1008.40 1007.08 1006.03 1004.39 1003.98 1003.28 1002.59 1002.66 1003.10 1003.68 1003.40 1003.45 1003.51 1004.12 1004.43 1004.76 1005.85 1007.17 1007.99 1009.28 1010.28 1011.42 1011.58 1011.53 1011.53 1010.31 1010.58 1010.65 1010.74 1011.31 1012.51 1013.17
1015.82 1014.86 1013.99 1013.28 1012.65 1012.34 1012.62 1012.03 1011.73 1011.30 1009.78 1009.02 1008.05 1006.95 1005.39 1003.81 1002.79 1003.10 1003.24 1003.11 1002.76 1003.88 1003.57 1003.44 1004.30 1005.00 1005.80 1006.29 1006.82 1006.81 1007.98 1009.41 1010.81 1012.22 1012.53 1012.29 1010.49 1010.54 1010.19 1010.25 1010.78 1011.50 1012.29 1013.27
1016.28 1015.42 1014.49 1013.61 1012.79 1012.16 1012.00 1011.84 1011.57 1010.81 1009.79 1008.51 1007.58 1006.72 1005.41 1003.77 1003.36 1003.80 1003.63 1003.48 1003.10 1003.31 1003.70 1004.45 1005.67 1006.55 1006.93 1008.00 1008.47 1007.94 1007.66 1008.67 1011.25 1012.55 1012.88 1011.84 1011.35 1011.15 1010.75 1010.46 1011.10 1011.70 1012.62 1013.93
1016.76 1015.80 1014.85 1013.97 1013.09 1012.36 1011.94 1011.59 1011.34 1010.88 1010.09 1008.51 1007.98 1006.22 1005.23 1004.48 1003.91 1004.10 1004.11 1004.17 1003.79 1003.85 1004.20 1004.85 1006.08 1007.31 1007.41 1008.63 1009.17 1008.87 1008.65 1008.18 1009.81 1011.94 1012.21 1011.83 1010.83 1010.47 1010.40 1010.38 1011.28 1011.51 1012.36 1013.93
1016.87 1016.13 1015.32 1014.26 1013.39 1012.50 1012.13 1011.63 1011.40 1010.98 1009.98 1008.94 1008.67 1007.87 1006.84 1005.79 1004.97 1004.54 1004.64 1004.83 1004.68 1003.94 1004.80 1005.92 1006.56 1007.39 1007.56 1008.29 1008.84 1009.67 1009.52 1010.10 1010.47 1011.48 1012.04 1011.65 1010.94 1011.06 1011.26 1011.60 1011.74 1011.40 1012.40 1013.54
1016.94 1016.07 1015.33 1014.42 1013.38 1012.54 1012.11 1011.70 1011.29 1011.09 1010.17 1009.25 1009.03 1008.77 1008.41 1007.23 1006.48 1005.73 1005.34 1005.03 1005.30 1005.56 1005.89 1006.44 1007.12 1007.92 1008.32 1008.40 1008.73 1008.67 1009.17 1010.11 1011.23 1011.92 1012.66 1012.21 1011.35 1011.91 1012.01 1012.15 1012.36 1012.50 1013.25 1014.54
1017.07 1016.05 1015.31 1014.49 1013.26 1012.35 1011.94 1011.63 1011.23 1010.63 1010.22 1009.78 1009.28 1008.93 1008.71 1008.85 1008.14 1007.12 1005.88 1005.61 1005.25 1005.42 1006.06 1007.09 1007.74 1008.87 1009.22 1009.39 1010.04 1009.68 1010.11 1009.89 1010.30 1011.63 1011.98 1012.20 1012.59 1012.59 1012.19 1012.39 1013.03 1013.95 1014.63 1015.67
1016.87 1015.91 1014.92 1014.30 1013.29 1012.33 1012.09 1011.86 1011.41 1010.45 1010.17 1009.74 1009.45 1009.34 1009.00 1008.46 1007.77 1007.04 1006.49 1006.21 1006.23 1006.24 1006.32 1007.19 1008.23 1009.13 1009.71 1010.49 1010.70 1011.07 1011.25 1010.95 1011.40 1012.34 1013.37 1013.66 1013.94 1013.91 1013.53 1013.45 1013.54 1014.50 1015.72 1016.78
1016.50 1015.62 1014.65 1013.84 1013.05 1012.31 1011.82 1011.99 1011.83 1011.35 1010.96 1010.40 1009.96 1009.46 1009.26 1008.76 1007.34 1006.63 1006.38 1006.59 1006.73 1006.88 1007.09 1007.70 1008.64 1009.57 1010.26 1011.12 1011.38 1012.33 1013.36 1012.67 1012.74 1014.03 1014.74 1014.94 1015.46 1015.61 1015.33 1014.95 1014.87 1016.26 1017.22 1018.06
1016.15 1015.19 1014.29 1013.49 1012.77 1012.10 1011.88 1011.88 1011.96 1011.93 1011.96 1011.26 1010.36 1010.11 1009.87 1009.31 1008.35 1007.48 1007.11 1007.04 1007.31 1007.61 1008.09 1008.65 1009.59 1010.17 1010.91 1011.86 1012.74 1014.65 1015.49 1015.18 1014.54 1014.09 1014.12 1014.82 1016.55 1016.62 1016.45 1016.55 1017.39 1018.08 1018.45 1019.84
1015.80 1014.64 1013.73 1013.07 1012.45 1011.93 1011.86 1012.08 1011.92 1011.68 1011.62 1011.46 1011.19 1011.00 1010.59 1009.89 1009.25 1008.76 1008.44 1008.24 1008.18 1008.30 1008.87 1009.92 1010.50 1011.02 1011.41 1012.87 1014.92 1016.74 1016.81 1016.39 1016.07 1015.71 1015.75 1016.57 1017.65 1017.82 1018.18 1018.36 1019.43 1020.01 1020.41 1021.48
1015.26 1014.11 1013.25 1012.70 1012.26 1012.35 1012.40 1012.65 1012.71 1011.82 1011.42 1011.66 1011.70 1011.40 1011.23 1010.82 1010.19 1009.73 1009.52 1009.16 1009.34 1009.22 1010.14 1010.98 1011.35 1012.07 1012.50 1014.61 1016.81 1018.20 1018.17 1017.71 1017.31 1017.19 1016.83 1018.10 1019.10 1020.16 1020.32 1020.17 1021.05 1021.60 1022.61 1023.57
1014.74 1013.77 1012.91 1012.53 1012.46 1012.58 1012.71 1012.84 1012.52 1012.04 1011.93 1012.27 1012.86 1012.71 1012.22 1012.13 1011.56 1011.03 1010.58 1010.45 1010.13 1010.75 1011.40 1011.79 1012.54 1013.56 1014.91 1017.27 1019.16 1019.62 1019.46 1019.32 1018.81 1018.56 1018.31 1019.26 1020.50 1021.39 1021.93 1022.28 1022.72 1023.54 1024.61 1025.48
1014.46 1013.65 1012.84 1012.90 1013.32 1013.94 1013.69 1012.98 1012.68 1012.81 1013.05 1013.67 1014.65 1014.90 1014.06 1013.40 1012.83 1012.27 1011.64 1011.44 1011.81 1012.20 1012.69 1013.44 1014.04 1016.22 1018.49 1020.52 1020.71 1020.92 1020.67 1020.23 1020.69 1020.39 1020.57 1021.30 1021.91 1022.93 1023.58 1023.92 1024.66 1025.23 1026.30 1026.83
1014.88 1014.19 1014.14 1014.75 1014.91 1014.25 1013.67 1013.52 1013.91 1014.40 1015.45 1015.63 1016.66 1016.40 1015.63 1015.28 1014.12 1013.46 1013.19 1013.09 1013.53 1013.70 1014.62 1014.60 1016.29 1019.72 1021.66 1022.29 1022.53 1022.39 1022.12 1021.81 1021.80 1021.65 1022.71 1023.22 1023.84 1024.47 1025.10 1025.65 1026.21 1026.66 1027.28 1027.87
1016.99 1017.27 1016.99 1016.03 1014.93 1014.76 1015.51 1016.85 1017.80 1018.77 1019.14 1018.90 1018.63 1017.85 1017.23 1016.22 1015.95 1015.27 1015.06 1014.91 1014.99 1015.31 1015.85 1016.18 1018.59 1021.29 1022.92 1023.53 1023.62 1023.68 1023.57 1023.37 1023.39 1023.53 1023.91 1024.42 1024.99 1025.85 1026.48 1027.21 1027.69 1028.07 1028.43 1028.87
1018.24 1017.87 1017.49 1017.45 1017.95 1018.84 1019.75 1022.01 1021.80 1021.87 1022.35 1021.54 1020.77 1019.91 1018.75 1017.58 1017.13 1016.81 1016.50 1016.39 1016.33 1017.02 1017.34 1017.89 1020.73 1023.20 1024.08 1024.59 1024.91 1025.09 1025.03 1024.97 1025.10 1025.36 1025.76 1026.27 1026.78 1027.27 1027.76 1028.37 1028.86 1029.26 1029.51 1029.52
1018.34 1019.02 1019.91 1021.25 1022.95 1023.96 1025.63 1026.09 1025.14 1024.57 1023.91 1023.18 1022.73 1021.37 1019.80 1018.57 1018.29 1018.41 1018.29 1018.19 1018.73 1018.48 1019.07 1021.21 1023.15 1024.05 1024.99 1025.62 1025.99 1026.29 1026.48 1026.54 1026.75 1027.11 1027.39 1027.66 1028.03 1028.37 1028.78 1029.47 1029.92 1030.01 1029.85 1029.71
1022.01 1023.44 1025.08 1026.34 1027.56 1028.14 1028.08 1027.90 1027.25 1025.99 1025.17 1024.48 1023.67 1022.30 1021.02 1020.22 1020.07 1020.48 1020.49 1020.63 1020.37 1021.02 1021.95 1023.37 1024.42 1025.11 1025.86 1026.37 1026.83 1027.13 1027.68 1027.87 1028.08 1028.45 1028.79 1029.04 1029.35 1029.71 1029.93 1030.19 1030.41 1030.37 1030.21 1029.99
1025.35 1026.52 1029.11 1029.41 1029.55 1029.23 1029.19 1028.85 1028.21 1027.16 1026.43 1025.57 1024.16 1022.59 1021.72 1021.18 1021.43 1021.87 1021.95 1022.30 1022.94 1023.48 1024.10 1024.65 1025.37 1026.02 1026.51 1027.02 1027.51 1027.98 1028.51 1029.11 1029.55 1029.78 1029.95 1030.18 1030.46 1030.64 1030.69 1030.58 1030.44 1030.43 1030.56 1030.56
1027.97 1029.39 1030.56 1030.43 1030.63 1030.63 1030.67 1030.15 1029.56 1028.32 1027.39 1025.89 1024.82 1023.17 1022.12 1022.05 1022.42 1022.84 1023.82 1024.10 1024.56 1024.95 1025.25 1025.73 1026.23 1026.84 1027.35 1027.80 1028.22 1028.79 1029.25 1029.67 1030.14 1030.53 1031.00 1031.38 1031.72 1031.90 1031.87 1031.48 1031.24 1031.15 1031.00 1030.76
1030.56 1031.47 1031.33 1031.47 1031.71 1032.00 1031.78 1031.55 1030.64 1029.48 1028.49 1027.43 1025.88 1024.47 1023.52 1022.91 1023.19 1024.18 1024.66 1025.34 1025.70 1025.86 1026.21 1026.65 1027.18 1027.73 1028.25 1028.68 1029.04 1029.58 1030.11 1030.66 1031.19 1031.63 1031.99 1032.18 1032.28 1032.20 1032.25 1031.94 1031.49 1031.08 1030.71 1030.42
Thickness
5345 5349 5352 5355 5358 5363 5367 5366 5369 5373 5378 5378 5380 5396 5421 5450 5468 5470 5474 5497 5507 5524 5543 5548 5556 5554 5589 5585 5592 5582 5585 5569 5556 5576 5585 5591 5599 5598 5596 5584 5580 5552 5560 5596
5339 5343 5346 5350 5354 5357 5358 5356 5366 5370 5371 5381 5390 5400 5420 5438 5460 5471 5475 5498 5517 5527 5536 5537 5551 5569 5569 5579 5591 5595 5585 5568 5537 5553 5564 5570 5577 5585 5595 5587 5583 5568 5576 5599
5336 5338 5342 5346 5350 5353 5354 5354 5359 5364 5371 5372 5383 5391 5410 5432 5450 5466 5483 5503 5512 5522 5528 5537 5542 5545 5548 5563 5580 5588 5593 5570 5587 5588 5599 5582 5571 5583 5587 5596 5577 5592 5585 5594
5332 5333 5337 5341 5347 5351 5351 5345 5352 5357 5366 5380 5380 5388 5399 5423 5443 5465 5481 5490 5506 5518 5514 5523 5525 5520 5529 5545 5563 5566 5571 5568 5569 5569 5572 5575 5577 5580 5580 5583 5608 5590 5607 5588
5332 5330 5334 5340 5345 5350 5348 5347 5347 5355 5366 5372 5378 5385 5401 5420 5444 5456 5460 5484 5479 5489 5515 5528 5517 5524 5531 5543 5539 5551 5550 5537 5546 5543 5554 5566 5572 5569 5583 5593 5592 5581 5570 5578
5331 5331 5333 5338 5342 5347 5347 5347 5346 5349 5369 5371 5379 5394 5406 5436 5443 5454 5478 5481 5489 5493 5507 5518 5527 5528 5533 5545 5544 5528 5536 5527 5530 5530 5531 5538 5543 5561 5568 5575 5572 5583 5567 5576
5327 5327 5330 5335 5340 5342 5339 5344 5347 5351 5367 5374 5379 5389 5404 5430 5458 5459 5464 5477 5496 5485 5495 5510 5510 5509 5507 5510 5511 5528 5526 5519 5498 5497 5498 5516 5549 5529 5549 5563 5560 5554 5552 5545
5323 5323 5325 5329 5335 5340 5342 5344 5348 5351 5363 5375 5379 5382 5406 5435 5448 5443 5457 5467 5475 5485 5490 5488 5489 5482 5494 5481 5481 5500 5524 5510 5480 5490 5455 5502 5511 5516 5532 5555 5559 5536 5536 5525
5319 5321 5322 5324 5330 5336 5340 5343 5347 5352 5358 5374 5367 5387 5406 5426 5438 5442 5448 5453 5460 5474 5476 5475 5469 5469 5483 5484 5476 5481 5494 5506 5507 5461 5493 5505 5533 5516 5521 5542 5541 5525 5524 5511
5315 5317 5318 5321 5325 5331 5335 5340 5344 5348 5359 5368 5364 5379 5392 5409 5422 5439 5438 5442 5453 5464 5466 5464 5468 5465 5478 5479 5487 5472 5482 5482 5496 5483 5478 5493 5497 5500 5505 5527 5543 5519 5516 5507
5313 5315 5317 5319 5323 5327 5332 5337 5341 5346 5355 5365 5362 5365 5374 5390 5406 5427 5427 5443 5441 5449 5464 5462 5455 5459 5462 5468 5465 5489 5488 5485 5477 5473 5482 5494 5481 5486 5502 5491 5484 5492 5492 5484
5313 5313 5314 5317 5323 5327 5329 5334 5338 5345 5352 5358 5359 5364 5369 5372 5384 5401 5416 5427 5438 5447 5447 5441 5437 5440 5424 5443 5464 5453 5475 5478 5488 5483 5481 5456 5454 5468 5471 5472 5470 5464 5462 5456
5315 5313 5315 5316 5320 5323 5322 5326 5333 5343 5349 5356 5359 5361 5364 5371 5381 5393 5410 5413 5417 5425 5430 5433 5428 5435 5420 5423 5429 5433 5439 5444 5443 5452 5430 5427 5429 5437 5448 5454 5458 5452 5443 5438
5319 5315 5315 5317 5319 5321 5322 5322 5325 5332 5339 5349 5355 5357 5360 5365 5381 5393 5400 5403 5406 5411 5417 5420 5420 5422 5412 5407 5420 5414 5408 5427 5425 5410 5406 5414 5409 5411 5419 5426 5429 5420 5418 5415
5322 5318 5316 5317 5318 5321 5321 5320 5321 5323 5328 5337 5349 5349 5352 5358 5369 5381 5389 5395 5396 5398 5402 5403 5399 5399 5404 5396 5400 5378 5370 5385 5418 5427 5419 5415 5393 5394 5404 5402 5397 5394 5394 5383
5324 5322 5320 5318 5318 5320 5320 5315 5319 5322 5324 5330 5340 5338 5343 5351 5357 5364 5370 5376 5380 5384 5386 5381 5382 5383 5393 5388 5371 5350 5353 5362 5370 5386 5381 5378 5370 5373 5376 5375 5367 5365 5364 5359
5328 5326 5322 5318 5316 5314 5310 5303 5307 5317 5323 5325 5331 5338 5336 5339 5348 5354 5355 5360 5360 5369 5366 5365 5370 5367 5368 5359 5344 5333 5335 5341 5352 5358 5366 5358 5349 5342 5346 5348 5343 5342 5333 5327
5331 5327 5324 5317 5312 5307 5303 5305 5306 5312 5318 5315 5316 5321 5329 5325 5336 5343 5343 5346 5351 5348 5350 5352 5353 5350 5341 5324 5312 5312 5316 5321 5328 5333 5338 5334 5327 5324 5321 5321 5320 5315 5307 5302
5333 5327 5323 5314 5300 5289 5292 5300 5303 5303 5304 5296 5294 5295 5311 5310 5322 5327 5336 5336 5336 5334 5337 5338 5341 5317 5298 5284 5295 5291 5297 5307 5304 5310 5311 5309 5307 5301 5299 5298 5294 5292 5285 5283
5327 5321 5305 5283 5282 5287 5291 5288 5280 5274 5267 5278 5277 5279 5292 5291 5308 5317 5324 5321 5317 5317 5320 5321 5307 5278 5263 5262 5266 5272 5279 5285 5293 5298 5290 5288 5284 5281 5278 5275 5274 5273 5270 5266
5309 5288 5278 5282 5285 5278 5259 5243 5244 5233 5239 5252 5256 5264 5270 5279 5290 5299 5296 5300 5301 5305 5308 5315 5299 5276 5249 5251 5255 5258 5263 5267 5269 5271 5269 5268 5266 5262 5260 5257 5255 5254 5252 5249
5292 5286 5280 5271 5254 5235 5230 5174 5213 5225 5221 5224 5224 5235 5252 5261 5265 5276 5280 5289 5290 5290 5279 5294 5275 5239 5237 5239 5239 5240 5244 5247 5248 5249 5247 5246 5244 5242 5240 5237 5236 5234 5233 5232
5290 5265 5248 5236 5208 5198 5181 5181 5191 5196 5198 5199 5203 5212 5231 5242 5246 5238 5257 5267 5265 5266 5261 5253 5226 5230 5226 5223 5224 5224 5226 5229 5231 5230 5230 5229 5227 5225 5222 5219 5217 5216 5217 5218
5247 5226 5215 5185 5166 5167 5176 5176 5178 5185 5186 5188 5190 5200 5214 5221 5221 5199 5227 5233 5237 5232 5231 5230 5209 5212 5210 5212 5211 5211 5209 5211 5211 5211 5210 5210 5208 5206 5206 5204 5201 5199 5202 5204
5215 5208 5175 5155 5164 5161 5149 5149 5156 5168 5167 5169 5180 5201 5207 5210 5198 5186 5199 5205 5180 5190 5210 5204 5196 5196 5196 5196 5196 5194 5191 5188 5187 5185 5188 5187 5186 5186 5187 5188 5186 5184 5182 5181
5197 5177 5164 5165 5147 5135 5128 5119 5125 5141 5148 5157 5171 5194 5213 5213 5197 5192 5167 5171 5176 5181 5179 5180 5181 5180 5180 5179 5178 5174 5170 5169 5165 5162 5167 5167 5162 5162 5161 5162 5162 5163 5163 5165
5173 5158 5158 5144 5134 5125 5115 5116 5116 5124 5128 5145 5160 5187 5194 5194 5198 5186 5182 5179 5174 5169 5170 5170 5168 5164 5160 5158 5162 5160 5157 5154 5148 5143 5146 5146 5140 5138 5142 5149 5152 5154 5156 5154